Regional Weather Roundup
Issued by NWS Northern Indiana

Home | Current Version | Previous Version | Text Only | Print | Product List | Glossary On
Versions: 1 2 3 4 5 6 7 8 9 10 11 12 13 14 15 16 17 18 19 20 21 22 23 24 25 26 27 28 29 30 31 32 33 34 35 36 37 38 39 40 41 42 43 44 45 46 47 48 49 50
000
ASUS43 KIWX 282310
RWRIWX

KIWX WEATHER ROUNDUP
NATIONAL WEATHER SERVICE NORTHERN INDIANA
600 PM EST SAT FEB 28 2015

NOTE: "FAIR" INDICATES FEW OR NO CLOUDS BELOW 12,000 FEET WITH NO
SIGNIFICANT WEATHER AND/OR OBSTRUCTIONS TO VISIBILITY.

* THESE STATIONS ARE NOT UNDER NWS QUALITY CONTROL. THEY ALSO MAY NOT
  REPORT WEATHER SUCH AS PRECIPITATION OR FOG.

INZ001>027-010000-
NORTHERN INDIANA

CITY           SKY/WX    TMP DP  RH WIND       PRES   REMARKS
GARY*          MOCLDY    23   0  36 SE12      30.58F WCI  12
VALPARAISO     MOCLDY    19   5  54 E6        30.56F WCI  11
MICHIGAN CITY* PTCLDY    21  -4  33 SE5       30.58S WCI  15
LAPORTE*       MOCLDY    21   8  56 E7        30.57S WCI  12
KNOX*            N/A     21  -9  25 SE7       30.56S WCI  13
SOUTH BEND     PTCLDY    20   4  50 SE6       30.58F WCI  12
ELKHART*       PTCLDY    19   0  42 SE6       30.58F WCI  11
GOSHEN         MOCLDY    20   4  50 SE6       30.57F WCI  12
MONTICELLO*    CLOUDY    22  10  59 E3        30.55F
LOGANSPORT*    CLOUDY    21  10  63 SE7       30.56F WCI  13
ROCHESTER*     CLOUDY    23   5  46 E9        30.57S WCI  13
WARSAW*        CLOUDY    21   5  49 SE6       30.57S WCI  14
ANGOLA*        CLEAR     16   1  53 SE6       30.57F WCI   7
FORT WAYNE     MOCLDY    19   5  54 E12       30.59F WCI   7
HUNTINGTON*    CLOUDY    20   2  47 E8        30.58S WCI  10
PERU/GRISSOM   CLOUDY    22   9  56 E10       30.54F WCI  11
MARION*        CLOUDY    21   5  51 E8        30.57S WCI  11

$$
INZ028>050-010000-
CENTRAL INDIANA

CITY           SKY/WX    TMP DP  RH WIND       PRES   REMARKS
LAFAYETTE      CLOUDY    23   9  55 E12       30.54F WCI  12
KOKOMO*        CLOUDY    21   9  58 E10       30.56S WCI  10
MUNCIE*        MOCLDY    21   7  54 E12       30.56S WCI   9
INDIANAPOLIS   CLOUDY    24   8  50 E9        30.53F WCI  14

$$
MIZ043>046-050>051-056>058-064>065-071>073-077>080-010000-
SOUTHWEST LOWER MICHIGAN

CITY           SKY/WX    TMP DP  RH WIND       PRES   REMARKS
BATTLE CREEK   CLEAR     19   0  43 S7        30.56F WCI  10
BENTON HARBOR  CLEAR     19   1  45 SE8       30.57F WCI   9
COLDWATER*     CLEAR     17  -1  43 S6        30.57F WCI   9
HILLSDALE*     CLEAR     16   2  53 SE6       30.57S WCI   8
HOLLAND        CLEAR     18   4  54 W3        30.58F
GRAND RAPIDS   PTCLDY    20  -3  36 S7        30.56F WCI  11
KALAMAZOO      CLEAR     19   1  45 S7        30.57F WCI  10
STURGIS*       CLEAR     18   3  53 SE9       30.56F WCI   6
THREE RIVERS*  FAIR      19   2  48 SE3       30.58F

$$
OHZ001>008-015>018-024>025-010000-
NORTHWEST OHIO

CITY           SKY/WX    TMP DP  RH WIND       PRES   REMARKS
WAUSEON*       FAIR      16   1  53 SE6       30.61F WCI   7
DEFIANCE       CLEAR     18   2  49 E7        30.62F WCI   9
FINDLAY        MOCLDY    19   1  45 E7        30.60F WCI  10
TOLEDO EXPRESS CLEAR     17  -1  45 SE3       30.62F
TOLEDO METCALF MOCLDY    18   2  49 E7        30.64F WCI   9
LIMA           PTCLDY    19   5  54 E7        30.58F WCI  10

$$
AND FOR LAKE MICHIGAN COASTAL AND OPEN LAKE BUOY OBSERVATIONS

STATION/POSITION TEMP    WIND        PRES    VSBY  WAVE
                 AIR SEA DIR/SP/G                  HT/PER
                 (F)     (DEG/KT/KT) (MB)    (MI)  (FT/S)
CALUMET HARBOR    21     150/  7/  9 1033.7F
MICHIGAN CITY     20     140/  7/  8   N/A
SAINT JOSEPH      18     340/  3/  5 1035.6R

$$
&&


USA.gov is the U.S. government's official web portal to all federal, state and local government web resources and services.